Content
SEND FEEDBACK

Daily
Averages
Monthly
Summary
Turkmenistan

ASHGABAT, TURKMENISTAN


Home > Asia > Turkmenistan
Elevation: 775 feet     Latitude: 37 58N     Longitude: 058 20E

WEATHER
 
SELECT A DAY
Number of Records: 177,170;   Date Range: 3/15/97 - 7/23/14
 
SHARE

PRINT THIS DATA

[ ← Previous Day ]
WEATHER ALMANAC - MAY 7, 2013
[ Next Day → ]
[ °C ]   °F
Weather ElementAverageHighLow
Temperature77.1 °F93.2 °F (3:30 pm)60 °F (5:00 am)
Dewpoint28.3 °F49 °F (8:00 pm)17.6 °F (1:00 pm)
Humidity17.6 %45 % (2:00 am)6 % (3:30 pm)
Barometer29.88 in29.92 in (10:00 am)29.83 in (5:00 pm)
Wind Speed8.4 mph15.7 mph (10:30 am)
Weather ElementAverage
Visibility6.1 mi
Wind DirectionWSW (257.9 °)

Weather ElementTotal
Precipitation---
Cooling Degree Days11.6 (Base 65)
Growing Degree Days26.6 (Base 50)
Averaged from 39 records on May 7, 2013
WEATHER CONDITIONS BREAKOUT
WIND DIRECTION BREAKOUT
WEATHER BY HOUR - MAY 7, 2013
[ °C ]   °F
Local TimeTemperatureDewpointHumidityBarometerVisibilityWind DirectionWind SpeedGust SpeedPrecipitationEventsConditions
1:00 AM69.8 °F23.0 °F17 %29.89 in6.2 miSouth (190°)6.7 mphClear
2:00 AM62.0 °F42.0 °F35 %29.86 in6.0 miNW (320°)4.5 mph
2:00 AM62.6 °F41.0 °F45 %29.86 in6.2 miNW (320°)4.5 mphClear
3:00 AM62.6 °F30.2 °F30 %29.86 in6.2 miSSW (200°)6.7 mphClear
4:00 AM62.6 °F28.4 °F27 %29.86 in6.2 miSSW (210°)4.5 mphClear
4:30 AM62.6 °F24.8 °F24 %29.86 in6.2 miSW (230°)4.5 mphClear
5:00 AM60.0 °F38.0 °F32 %29.88 in6.0 miSW (230°)4.5 mph
5:00 AM60.8 °F28.4 °F29 %29.86 in6.2 miSW (230°)6.7 mphClear
5:30 AM60.8 °F26.6 °F27 %29.86 in6.2 miSW (230°)6.7 mphClear
6:00 AM60.8 °F26.6 °F27 %29.86 in6.2 miSW (230°)6.7 mphScattered Clouds
6:30 AM62.6 °F26.6 °F26 %29.86 in6.2 miSW (230°)6.7 mphScattered Clouds
7:00 AM64.4 °F26.6 °F24 %29.89 in5.6 miWSW (250°)4.5 mphPartly Cloudy
7:30 AM68.0 °F28.4 °F23 %29.89 in6.2 miWSW (250°)6.7 mphPartly Cloudy
8:00 AM68.0 °F36.0 °F19 %29.89 in6.0 miWSW (250°)6.7 mphClear
8:00 AM71.6 °F32.0 °F23 %29.89 in6.2 miVariable2.2 mphPartly Cloudy
8:30 AM78.8 °F23.0 °F13 %29.89 in6.2 miWest (270°)6.7 mphPartly Cloudy
9:00 AM80.6 °F21.2 °F11 %29.89 in6.2 miWNW (290°)11.2 mphPartly Cloudy
9:30 AM82.4 °F24.8 °F12 %29.89 in6.2 miWNW (300°)13.4 mphClear
10:00 AM82.4 °F26.6 °F13 %29.92 in6.2 miNW (310°)13.4 mphClear
10:30 AM84.2 °F24.8 °F11 %29.89 in6.2 miNW (310°)15.7 mphClear
11:00 AM84.0 °F36.0 °F10 %29.91 in6.0 miNW (310°)15.7 mph
11:00 AM84.2 °F26.6 °F12 %29.92 in6.2 miWNW (300°)15.7 mphClear
12:00 PM87.8 °F26.6 °F11 %29.92 in6.2 miNW (310°)11.2 mphClear
1:00 PM89.6 °F17.6 °F7 %29.89 in6.2 miNW (310°)8.9 mphPartly Cloudy
2:00 PM91.4 °F17.6 °F7 %29.89 in6.2 miNorth (350°)4.5 mphScattered Clouds
2:00 PM90.0 °F37.0 °F8 %29.87 in6.0 miNNE (30°)4.5 mphScattered Clouds
3:00 PM91.4 °F17.6 °F7 %29.86 in6.2 miNW (310°)6.7 mphScattered Clouds
3:30 PM93.2 °F17.6 °F6 %29.86 in6.2 miWNW (300°)11.2 mphScattered Clouds
4:00 PM91.4 °F19.4 °F7 %29.86 in6.2 miWNW (300°)13.4 mphPartly Cloudy
5:00 PM91.4 °F17.6 °F7 %29.86 in6.2 miWNW (290°)11.2 mphPartly Cloudy
5:00 PM92.0 °F35.0 °F7 %29.83 in6.0 miWest (280°)11.2 mphScattered Clouds
6:00 PM89.6 °F17.6 °F7 %29.86 in6.2 miWNW (290°)13.4 mphPartly Cloudy
7:00 PM89.6 °F19.4 °F8 %29.86 in6.2 miWest (280°)11.2 mphPartly Cloudy
8:00 PM83.0 °F49.0 °F20 %29.84 in6.0 miWest (260°)6.7 mphPartly Cloudy
8:00 PM82.4 °F28.4 °F14 %29.86 in6.2 miWest (260°)6.7 mphScattered Clouds
9:00 PM78.8 °F32.0 °F18 %29.89 in6.2 miWest (270°)8.9 mphPartly Cloudy
10:00 PM78.8 °F32.0 °F18 %29.92 in6.2 miWest (260°)8.9 mphClear
11:00 PM72.0 °F46.0 °F28 %29.90 in6.0 miWSW (250°)6.7 mph
11:00 PM77.0 °F30.2 °F18 %29.92 in6.2 miWSW (250°)6.7 mphClear
Hourly data recorded from UTAA, located miles away from Ashgabat, Turkmenistan







STORIES FROM OUR PARTNERS